sat.trackr.live / text

‹ back to catalog

STARLINK-31256

NORAD 59161 · 2024-044K

PAYLOAD ACTIVE UNKNOWN

§ Identity

Operator
Country
US
Launch date
2024-03-04
Launch site
AFETR
Launch vehicle
Mass (kg)
RCS (m²)

Purposes: comms

External: N2YO · Heavens-Above · Gunter

§ Orbital elements

Epoch: 2026-05-24T23:02:11.472864Z

Period
94.27 min
Inclination
43.0046°
Eccentricity
0.0001435
Mean motion
15.27579576 rev/d
Perigee alt
482.1 km
Apogee alt
484.0 km
Semi-major
6,861.2 km
B*
2.2029e-4
RAAN
35.9927°
Arg perigee
292.6208°
Mean anomaly
67.4492°
Rev number
12,526

§ Raw data

STARLINK-312561 59161U 24044K   26144.95985501  .00005805  00000+0  22029-3 0  99902 59161  43.0046  35.9927 0001435 292.6208  67.4492 15.27579576125260

JSON: /api/v1/satellites/59161 · /tle

For live sub-satellite position, see the globe view (requires WebGL).

§ Visibility from observer

Set your observer location to see the next 7 days of passes ≥ 10°. The values pass through the URL so the page stays shareable.

No JS? Fill the form by hand. The geolocation button needs JavaScript.